FW2134 Staten Island NY US current weather conditions

sailwx.info

Wind from 264

Air temperature 21.1° C
Dewpoint 18.1° C

Last reported at 2020-Jul-15 08:00 UTC.
Time now 2020-Jul-15 09:09 UTC

Location: N 40°35' W 074°11'.
View on Google Maps.

See reports from other nearby stations

  
Tides and Currents Weather Stations Pressure Air Temp Water Temp Dewpoint Dewpoint Depression Visibility Wind Speed Wind Dir Waves Ship Positions
date/time (UTC)wind fromknots sea level pressurealtimeterstation pressurevisibilityair tempwater tempwave heightnotes
2020-Jul-15 08:00 264 21.1
2020-Jul-15 07:45 264 21.1
2020-Jul-15 07:30 264 21.1
2020-Jul-15 07:15 264 21.1
2020-Jul-15 07:00 264 21.7
2020-Jul-15 06:45 264 21.1
2020-Jul-15 06:30 264 21.7
2020-Jul-15 06:15 264 21.7
2020-Jul-15 06:00 264 21.7
2020-Jul-15 05:45 264 21.7
2020-Jul-15 05:30 264 21.7
2020-Jul-15 05:15 264 21.7
2020-Jul-15 05:00 264 22.2
2020-Jul-15 04:32 264 22.8
2020-Jul-15 04:18 264 22.8
2020-Jul-15 04:01 264 22.8
2020-Jul-15 03:46 264 22.8
2020-Jul-15 03:31 264 23.3
2020-Jul-15 03:17 264 23.3
2020-Jul-15 03:02 264 23.3
2020-Jul-15 02:46 264 23.3
2020-Jul-15 02:31 264 23.9
2020-Jul-15 02:17 264 23.9
2020-Jul-15 02:01 264 23.9
2020-Jul-15 01:47 264 24.4
2020-Jul-15 01:31 264 24.4
2020-Jul-15 01:16 264 24.4
2020-Jul-15 01:01 264 25.0
2020-Jul-15 00:46 264 25.0
2020-Jul-15 00:31 264 25.6
2020-Jul-15 00:16 264 26.1
2020-Jul-15 00:01 264 26.1
2020-Jul-14 23:46 264 26.7
2020-Jul-14 23:32 264 27.2
2020-Jul-14 23:17 222 27.8
2020-Jul-14 23:01 237 28.3
2020-Jul-14 22:45 199 28.9
2020-Jul-14 22:31 169 29.4
2020-Jul-14 22:16 169 30.6
2020-Jul-14 22:00 212 30.6
2020-Jul-14 21:46 234 31.1
2020-Jul-14 21:32 196 31.1
2020-Jul-14 21:17 199 31.1
2020-Jul-14 21:01 147 31.1
2020-Jul-14 20:46 200 31.1
2020-Jul-14 20:30 213 31.1
2020-Jul-14 20:16 346 30.6
2020-Jul-14 20:01 150 30.6
2020-Jul-14 19:46 134 30.0
2020-Jul-14 19:31 169 29.4
2020-Jul-14 19:17 161 29.4
2020-Jul-14 19:01 243 30.0
2020-Jul-14 18:46 117 30.0
2020-Jul-14 18:31 198 0 31.1
2020-Jul-14 18:17 217 30.6
2020-Jul-14 18:01 240 0 30.0
2020-Jul-14 17:46 167 30.6
2020-Jul-14 17:32 130 31.1
2020-Jul-14 15:01
2020-Jul-14 14:00
2020-Jul-14 13:00 144 21.1
2020-Jul-14 12:00
2020-Jul-14 11:00
2020-Jul-14 10:00
2020-Jul-14 09:01 181 20.0
2020-Jul-14 08:02 179 20.6
2020-Jul-14 07:45 20.6
2020-Jul-14 07:30 20.6
2020-Jul-14 07:15 21.1
2020-Jul-14 06:45
2020-Jul-14 06:31
2020-Jul-14 06:16
2020-Jul-14 06:01
2020-Jul-14 05:46
2020-Jul-14 05:31
2020-Jul-14 05:16 285 22.2
2020-Jul-14 05:01 285 22.2
2020-Jul-14 04:46 285 22.8
2020-Jul-14 04:31 285 22.8
2020-Jul-14 04:17 285 22.8
2020-Jul-14 04:00 250 23.3
2020-Jul-14 03:46 246 23.3
2020-Jul-14 03:31 244 23.9
2020-Jul-14 03:16 237 23.9
2020-Jul-14 03:00 233 24.4
2020-Jul-14 02:46 237 24.4
2020-Jul-14 02:30 224 25.6
2020-Jul-14 02:16 239 25.6
2020-Jul-14 02:02 257 0 25.6
2020-Jul-14 01:46 239 0 26.1
2020-Jul-14 01:31 258 0 26.1
2020-Jul-14 01:16 274 1 26.1
2020-Jul-14 01:01 239 25.6
2020-Jul-14 00:46 264 26.1
2020-Jul-14 00:30 229 26.1
2020-Jul-14 00:16 291 26.7
2020-Jul-14 00:00 191 0 26.7
2020-Jul-13 23:52 303 0 27.2
2020-Jul-13 23:31 233 1 27.8
2020-Jul-13 23:16 227 0 28.3
2020-Jul-13 23:00 247 0 28.3
2020-Jul-13 22:46 292 0 28.9
2020-Jul-13 22:30 215 0 29.4
2020-Jul-13 22:15 212 0 29.4
2020-Jul-13 21:46 183 30.6
2020-Jul-13 21:30 258 31.1
2020-Jul-13 21:15 220 0 31.1
2020-Jul-13 21:00 216 0 31.1
2020-Jul-13 20:45 243 1 31.1
2020-Jul-13 20:30 216 0 30.6
2020-Jul-13 20:15 275 0 30.0
2020-Jul-13 20:01 287 1 30.6
2020-Jul-13 19:45 291 0 31.1
2020-Jul-13 19:30 179 1 31.1
2020-Jul-13 19:15 241 0 31.7
2020-Jul-13 19:00 193 0 31.7
2020-Jul-13 18:45 239 1 31.1
2020-Jul-13 18:30 236 1 31.7
2020-Jul-13 18:15 216 0 31.1
2020-Jul-13 18:00 250 0 30.6
2020-Jul-13 17:45 216 1 30.6
2020-Jul-13 17:30 258 0 30.6
2020-Jul-13 17:15 223 0 30.0
2020-Jul-13 17:00 193 0 30.0
2020-Jul-13 16:45 222 0 30.0
2020-Jul-13 16:30 279 0 29.4
2020-Jul-13 16:15 144 0 28.3
2020-Jul-13 16:00 220 0 27.2
2020-Jul-13 15:45 148 26.7
2020-Jul-13 15:30 213 0 26.1
2020-Jul-13 15:15 159 0 26.1
2020-Jul-13 15:01 237 0 25.6
2020-Jul-13 14:47 192 0 25.0
2020-Jul-13 14:32 195 24.4
2020-Jul-13 14:16 175 0 23.9
2020-Jul-13 14:01 254 23.3
2020-Jul-13 13:45 237 23.3
2020-Jul-13 13:31 246 22.8
2020-Jul-13 13:16 233 22.2
2020-Jul-13 13:01 222 22.2
2020-Jul-13 12:46 186 21.7
2020-Jul-13 12:31 236 21.7
2020-Jul-13 12:16 272 21.1
2020-Jul-13 12:02 277 21.1
2020-Jul-13 11:46 215 21.1
2020-Jul-13 11:31 215 21.1
2020-Jul-13 11:16 251 20.6
2020-Jul-13 11:02 275 20.6
2020-Jul-13 10:46 271 20.6
2020-Jul-13 10:31 271 20.6
2020-Jul-13 10:15 271 20.6
2020-Jul-13 10:02 270 20.6
2020-Jul-13 09:46 270 20.6
2020-Jul-13 09:32 271 20.6
2020-Jul-13 09:16 270 20.6
2020-Jul-13 09:00 271 20.6